Hourly Data Report for August 07, 2019

TORONTO CITY
ONTARIO
Current Station Operator: ECCC - MSC

43°40'00.000" N
79°24'00.000" W
112.50 m
6158355
71508
XTO

Download Data

Hourly Data (August 2019)
Hourly Data Report for August 7, 2019
TIME
LST
Temp Definition
°C
Dew Point Definition
°C
Rel Hum Definition
%
Precip. Amount Definition
mm

Wind Dir Definition
10's deg

Wind Spd Definition
km/h
Visibility Definition
km
Stn Press Definition
kPa
Hmdx Definition


Wind Chill Definition


Weather Definition


00:00 22.7 18.2 76 0.0       99.43 29   LegendNANA
01:00 22.2 18.2 78 0.0       99.42 28   LegendNANA
02:00 22.1 17.8 77 0.0       99.40 28   LegendNANA
03:00 21.9 17.4 76 0.0       99.43 27   LegendNANA
04:00 21.7 17.7 78 0.0       99.43 27   LegendNANA
05:00 21.4 17.7 79 0.0       99.45 27   LegendNANA
06:00 21.3 17.7 80 0.0       99.48 27   LegendNANA
07:00 21.6 17.5 78 0.0       99.48 27   LegendNANA
08:00 22.1 17.4 75 0.0       99.50 28   LegendNANA
09:00 22.8 17.3 71 0.0       99.47 28   LegendNANA
10:00 24.4 17.3 65 0.0       99.46 30   LegendNANA
11:00 23.9 17.7 68 0.0       99.48 30   LegendNANA
12:00 25.6 16.9 59 0.0       99.45 31   LegendNANA
13:00 25.8 19.5 68 0.0       99.45 33   LegendNANA
14:00 26.0 17.5 60 0.0       99.40 32   LegendNANA
15:00 26.5 17.9 59 0.0       99.34 32   LegendNANA
16:00 24.8 18.2 67 0.0       99.35 31   LegendNANA
17:00 25.8 16.8 58 0.0       99.30 31   LegendNANA
18:00 25.2 17.3 61 0.0       99.29 31   LegendNANA
19:00 24.5 17.9 66 0.0       99.29 30   LegendNANA
20:00 23.7 16.9 65 0.0       99.35 29   LegendNANA
21:00 22.8 17.2 71 0.0       99.41 28   LegendNANA
22:00 22.0 17.5 76 0.0       99.35 28   LegendNANA
23:00 21.4 14.6 65 0.0       99.32 25   LegendNANA

Notes on Data Quality.

Legend

  • E = Estimated
  • M = Missing
  • NA = Not Available*
  • [empty] = Indicates an unobserved value
Date modified: